Location: Tucson
(32.2217°N, 110.9265°W)
Time: 07:08:27
(UTC-07:00)

Tiros 1 - Pass Details

Date: 03 November 2021
Orbit: 629 x 664 km, 48.4° (Epoch: 26 November)

Event Time Altitude Azimuth Distance (km) Brightness Sun altitude
Rises 05:54:12 0° 235° (SW) 2,977 - -10.8°
Exits shadow 05:55:15 - 236° (WSW) 2,575 9.8 -10.5°
Reaches altitude 10° 05:56:33 10° 238° (WSW) 2,069 9.3 -10.3°
Maximum altitude 06:01:19 69° 322° (NW) 708 7.2 -9.3°
Drops below altitude 10° 06:06:07 10° 46° (NE) 2,077 10.2 -8.3°
Sets 06:08:29 0° 48° (NE) 2,989 11.1 -7.8°
